[Iaude] MPEC G58: 2024 FE5 [a=1.78,e=0.35,i=15.9,H=23.2]

mpec at cfa.harvard.edu mpec at cfa.harvard.edu
Fri Apr 5 08:57:57 EDT 2024


M.P.E.C. 2024-G58                                 Issued 2024 April 5, 12:56 UT

     The Minor Planet Electronic Circulars contain information on unusual
         minor planets, routine data on comets and natural satellites,
         and occasional editorial announcements.  They are published
    on behalf of Division F of the International Astronomical Union by the
          Minor Planet Center, Smithsonian Astrophysical Observatory,
                          Cambridge, MA 02138, U.S.A.
			  
             Prepared using the Tamkin Foundation Computer Network

                              MPC at CFA.HARVARD.EDU
            URL https://www.minorplanetcenter.net/    ISSN 1523-6714

                                    2024 FE5                                    


Observations:
     K24F05E* C2024 03 31.37468911 25 23.729-17 56 29.12         20.77wXEG058F51
     K24F05E  C2024 03 31.39832511 25 25.930-17 54 59.98         21.46wXEG058F51
     K24F05E  C2024 03 31.40955611 25 26.978-17 54 17.40         21.28wXEG058F51
     K24F05E  C2024 03 31.52420911 25 38.016-17 46 59.08         20.57GVEG058F52
     K24F05E  C2024 03 31.52486011 25 38.103-17 46 56.97         20.67GVEG058F52
     K24F05E |C2024 04 01.20347011 26 56.310-17 02 54.40         21.1 GVEG058807
     K24F05E |C2024 04 01.20795011 26 56.770-17 02 36.50         21.1 GVEG058807
     K24F05E |C2024 04 01.21228011 26 57.220-17 02 19.60         21.1 GVEG058807
     K24F05E pC2024 04 02.89643211 30 19.25 -15 10 09.5          21.0 GVEG058L01
     K24F05E KC2024 04 02.90127211 30 19.79 -15 09 48.9          21.2 GVEG058L01
     K24F05E pC2024 04 02.90556311 30 20.29 -15 09 31.0          21.1 GVEG058L01
     K24F05E KC2024 04 03.20517611 30 58.09 -14 48 36.7          20.3 GXEG058858
     K24F05E KC2024 04 03.21665411 30 59.36 -14 47 48.7          20.6 GXEG058858
     K24F05E KC2024 04 05.34930 11 35 35.92 -12 13 13.5                VEG058691
     K24F05E KC2024 04 05.35755 11 35 36.96 -12 12 35.5                VEG058691
     K24F05E KC2024 04 05.36580 11 35 38.00 -12 11 58.6                VEG058691
     K24F05E 3C2024 04 05.46198311 35 51.286-12 04 37.81         20.61GVEG058T14
     K24F05E 3C2024 04 05.46296111 35 51.405-12 04 33.36         20.61GVEG058T14
     K24F05E 3C2024 04 05.46393711 35 51.523-12 04 28.90         20.69GVEG058T14

Observer details:
691 Steward Observatory, Kitt Peak-Spacewatch.  Observer T. H. Bressi.  0.9-m
    f/3 reflector + CCD.
807 Cerro Tololo Observatory, La Serena.  Observers T. Linder, R. Holmes.
    0.61-m f/6.8 Ritchey-Chretien + CCD.
858 Tebbutt Observatory, Edgewood.  Observer F. B. Zoltowski.  0.51-m f/8.1
    Schmidt-Cassegrain + CCD.
F51 Pan-STARRS 1, Haleakala.  Observers J. Herman, T. Lowe, P. Minguez, A.
    Schultz, I. Smith.  Measurers K. Chambers, T. de Boer, J. Fairlamb, H.
    Gao, M. Huber, C.-C. Lin, E. Magnier, Y. Ramanjooloo, R. Wainscoat, R.
    Weryk.  1.8-m Ritchey-Chretien + CCD.
F52 Pan-STARRS 2, Haleakala.  Observers J. Herman, T. Lowe, P. Minguez, A.
    Schultz, I. Smith.  Measurers K. Chambers, T. de Boer, J. Fairlamb, H.
    Gao, M. Huber, C.-C. Lin, E. Magnier, Y. Ramanjooloo, R. Wainscoat, R.
    Weryk.  1.8-m Ritchey-Chretien + CCD.
L01 Visnjan Observatory, Tican.  Observers K. Korlevic, L. Poropat.  Measurer
    K. Korlevic.  1.0-m f/2.9 reflector + CCD.
T14 Canada-France-Hawaii Telescope, Maunakea.  Observers R. Wainscoat, L.
    Wells, T. Burdullis.  Measurers R. Weryk, R. Wainscoat.  3.6-m f/4.1
    reflector + CCD.

Orbital elements:
2024 FE5                                                 Earth MOID = 0.1588 AU
Epoch 2024 Mar. 31.0 TT = JDT 2460400.5                 Veres                   
M 346.87615              (2000.0)            P               Q                  
n   0.41520382     Peri.   15.88256     -0.80525373     +0.58481717             
a   1.7794884      Node   200.84319     -0.56951831     -0.80874386             
e   0.3508977      Incl.   15.94579     -0.16497068     -0.06262790             
P   2.37           H   23.27          G   0.15           U   8                  
Residuals in seconds of arc
240331 F51  0.0   0.1+    240401 807  0.4+  0.1+    240405 691  0.0   0.3-
240331 F51  0.1-  0.0     240402 L01  1.3-  0.2-    240405 691  0.4+  0.8-
240331 F51  0.1-  0.1+    240402 L01  1.2-  0.3+    240405 T14  0.0   0.0
240331 F52  0.4-  0.1+    240402 L01  0.8-  0.4+    240405 T14  0.0   0.0
240331 F52  0.1-  0.3-    240403 858  0.5-  0.4-    240405 T14  0.0   0.0
240401 807  0.0   0.1-    240403 858  0.3-  0.5-
240401 807  0.2+  0.2+    240405 691  0.4-  1.0-

Ephemeris:
2024 FE5                 a,e,i = 1.78, 0.35, 16                  q = 1.1551
Date    TT    R. A. (2000) Decl.     Delta      r    Elong.  Phase     V
2024 03 06    10 59 12.3 -32 12 57   0.3296  1.2683   142.1    28.8    22.6
...
2024 03 21    11 10 16.6 -26 32 42   0.2482  1.2189   150.9    23.4    21.8
...
2024 03 29    11 21 13.4 -20 18 08   0.2145  1.1975   156.0    19.8    21.3
...
2024 04 04    11 32 38.5 -13 51 46   0.1952  1.1840   158.6    17.9    21.0
2024 04 05    11 34 50.1 -12 38 47   0.1926  1.1820   158.8    17.8    21.0
2024 04 06    11 37 06.9 -11 23 34   0.1901  1.1801   158.9    17.8    21.0
...
2024 04 12    11 52 36.3 -03 13 38   0.1795  1.1698   157.1    19.5    20.9
...
2024 04 20    12 17 45.4 +08 19 03   0.1769  1.1603   149.3    26.2    21.0
...
2024 05 05    13 13 01.6 +25 27 47   0.2039  1.1555   132.2    40.3    21.7

M. P. C. Staff               (C) Copyright 2024 MPC           M.P.E.C. 2024-G58





More information about the Iaude mailing list